BAW305 LFPG-EGLL

Flight info

Callsign BAW305
Flight time 0h 39m
Altitude 24000
Route OPALE DCT KESAX DCT DIMAL DCT ALESO
Aircraft A320/M-SDE3FGHIRWY/LB1

Departure

Time 2026-05-08 20:04
Airport Charles de Gaulle International Airport (LFPG)

Arrival

Time 2026-05-08 20:44
Airport London Heathrow Airport (EGLL)
Time Latitude Longitude Altitude Speed Heading
2026-05-08 19:17 49.00217 2.56905 363 ft 0 kts 336°
2026-05-08 19:40 49.00199 2.56917 363 ft 4 kts 336°
2026-05-08 19:40 49.00174 2.56934 359 ft 4 kts 334°
2026-05-08 19:41 49.00151 2.56954 362 ft 4 kts 323°
2026-05-08 19:41 49.00134 2.56981 363 ft 4 kts 281°
2026-05-08 19:41 49.00134 2.57015 362 ft 4 kts 265°
2026-05-08 19:41 49.00134 2.57019 362 ft 0 kts 265°
2026-05-08 19:43 49.00134 2.57015 362 ft 2 kts 265°
2026-05-08 19:43 49.00130 2.56955 359 ft 10 kts 266°
2026-05-08 19:44 49.00123 2.56812 354 ft 16 kts 265°
2026-05-08 19:44 49.00114 2.56633 357 ft 18 kts 265°
2026-05-08 19:44 49.00103 2.56429 363 ft 21 kts 265°
2026-05-08 19:44 49.00092 2.56198 357 ft 22 kts 266°
2026-05-08 19:45 49.00083 2.56030 354 ft 5 kts 264°
2026-05-08 19:45 49.00079 2.55968 354 ft 7 kts 264°
2026-05-08 19:45 49.00074 2.55889 359 ft 7 kts 266°
2026-05-08 19:45 49.00072 2.55806 354 ft 6 kts 271°
2026-05-08 19:46 49.00072 2.55751 354 ft 2 kts 271°
2026-05-08 19:46 49.00072 2.55746 354 ft 0 kts 270°
2026-05-08 19:46 49.00072 2.55739 354 ft 1 kts 269°
2026-05-08 19:47 49.00072 2.55736 354 ft 1 kts 269°
2026-05-08 19:47 49.00072 2.55709 354 ft 4 kts 269°
2026-05-08 19:47 49.00077 2.55660 361 ft 6 kts 290°
2026-05-08 19:47 49.00113 2.55621 354 ft 8 kts 341°
2026-05-08 19:48 49.00177 2.55598 359 ft 11 kts 345°
2026-05-08 19:48 49.00259 2.55558 355 ft 14 kts 338°
2026-05-08 19:48 49.00360 2.55507 354 ft 17 kts 345°
2026-05-08 19:48 49.00468 2.55460 360 ft 16 kts 342°
2026-05-08 19:49 49.00584 2.55406 357 ft 18 kts 346°
2026-05-08 19:49 49.00688 2.55366 354 ft 13 kts 345°
2026-05-08 19:49 49.00779 2.55327 360 ft 14 kts 344°
2026-05-08 19:49 49.00877 2.55283 362 ft 15 kts 343°
2026-05-08 19:50 49.00963 2.55245 361 ft 4 kts 343°
2026-05-08 19:50 49.00999 2.55229 354 ft 7 kts 343°
2026-05-08 19:50 49.01008 2.55225 362 ft 2 kts 343°
2026-05-08 19:50 49.01028 2.55216 357 ft 4 kts 343°
2026-05-08 19:51 49.01057 2.55204 361 ft 1 kts 343°
2026-05-08 19:51 49.01067 2.55199 357 ft 0 kts 344°
2026-05-08 19:51 49.01076 2.55195 356 ft 3 kts 344°
2026-05-08 19:51 49.01083 2.55193 354 ft 0 kts 344°
2026-05-08 19:52 49.01091 2.55189 354 ft 3 kts 344°
2026-05-08 19:52 49.01130 2.55172 354 ft 8 kts 344°
2026-05-08 19:52 49.01201 2.55161 354 ft 13 kts
2026-05-08 19:53 49.01302 2.55214 357 ft 17 kts 17°
2026-05-08 19:53 49.01424 2.55187 354 ft 19 kts 345°
2026-05-08 19:53 49.01568 2.55161 356 ft 22 kts 355°
2026-05-08 19:53 49.01726 2.55142 355 ft 20 kts 355°
2026-05-08 19:54 49.01836 2.55126 354 ft 17 kts 353°
2026-05-08 19:54 49.01941 2.55094 359 ft 11 kts 346°
2026-05-08 19:54 49.01969 2.55082 354 ft 1 kts 343°
2026-05-08 19:54 49.01975 2.55079 362 ft 1 kts 340°
2026-05-08 19:55 49.01989 2.55064 357 ft 4 kts 321°
2026-05-08 19:55 49.02014 2.55019 354 ft 9 kts 300°
2026-05-08 19:55 49.02025 2.54889 356 ft 14 kts 268°
2026-05-08 19:55 49.02019 2.54725 354 ft 17 kts 268°
2026-05-08 19:56 49.02011 2.54536 354 ft 19 kts 265°
2026-05-08 19:56 49.02000 2.54316 360 ft 22 kts 265°
2026-05-08 19:56 49.01923 2.54114 354 ft 24 kts 223°
2026-05-08 19:56 49.01878 2.53870 354 ft 26 kts 268°
2026-05-08 19:57 49.01866 2.53586 359 ft 28 kts 265°
2026-05-08 19:57 49.01851 2.53312 355 ft 25 kts 264°
2026-05-08 19:57 49.01841 2.53037 354 ft 27 kts 266°
2026-05-08 19:57 49.01827 2.52762 354 ft 26 kts 265°
2026-05-08 19:58 49.01813 2.52511 360 ft 20 kts 265°
2026-05-08 19:58 49.01802 2.52318 354 ft 15 kts 265°
2026-05-08 19:58 49.01801 2.52176 356 ft 14 kts 285°
2026-05-08 19:58 49.01857 2.52128 356 ft 4 kts 353°
2026-05-08 19:59 49.01875 2.52125 354 ft 0 kts 354°
2026-05-08 19:59 49.01884 2.52123 354 ft 3 kts 354°
2026-05-08 19:59 49.01912 2.52120 354 ft 5 kts 355°
2026-05-08 19:59 49.01942 2.52116 361 ft 3 kts 355°
2026-05-08 20:00 49.01956 2.52114 354 ft 2 kts 355°
2026-05-08 20:00 49.01958 2.52114 354 ft 0 kts 355°
2026-05-08 20:02 49.01967 2.52113 359 ft 4 kts 355°
2026-05-08 20:02 49.02027 2.52106 354 ft 13 kts 356°
2026-05-08 20:02 49.02112 2.52143 357 ft 9 kts 84°
2026-05-08 20:03 49.02111 2.52183 353 ft 0 kts 84°
2026-05-08 20:03 49.02111 2.52190 353 ft 2 kts 84°
2026-05-08 20:03 49.02111 2.52195 353 ft 0 kts 84°
2026-05-08 20:03 49.02111 2.52196 353 ft 1 kts 84°
2026-05-08 20:04 49.02124 2.52414 355 ft 54 kts 85°
2026-05-08 20:04 49.02175 2.53333 358 ft 117 kts 85°
2026-05-08 20:04 49.02250 2.54818 406 ft 157 kts 86°
2026-05-08 20:04 49.02274 2.56414 1095 ft 148 kts 88°
2026-05-08 20:05 49.02313 2.57941 1811 ft 142 kts 84°
2026-05-08 20:05 49.02406 2.59503 2163 ft 158 kts 84°
2026-05-08 20:05 49.02521 2.61286 2445 ft 180 kts 84°
2026-05-08 20:05 49.02647 2.63309 2737 ft 203 kts 84°
2026-05-08 20:06 49.02785 2.65594 3071 ft 229 kts 85°
2026-05-08 20:06 49.02934 2.68147 3574 ft 251 kts 85°
2026-05-08 20:06 49.03086 2.70841 4383 ft 259 kts 85°
2026-05-08 20:06 49.03429 2.73559 5252 ft 267 kts 66°
2026-05-08 20:07 49.04654 2.75696 6060 ft 276 kts 31°
2026-05-08 20:07 49.06504 2.76460 6890 ft 282 kts 357°
2026-05-08 20:07 49.08378 2.75639 7756 ft 283 kts 331°
2026-05-08 20:07 49.10055 2.74052 8657 ft 284 kts 323°
2026-05-08 20:08 49.11671 2.72309 9574 ft 286 kts 322°
2026-05-08 20:08 49.13307 2.70536 9960 ft 288 kts 322°
2026-05-08 20:08 49.14930 2.68809 10060 ft 288 kts 325°
2026-05-08 20:08 49.16683 2.67312 10082 ft 289 kts 331°
2026-05-08 20:09 49.18602 2.65924 10087 ft 318 kts 333°
2026-05-08 20:09 49.20718 2.64481 10088 ft 346 kts 335°
2026-05-08 20:09 49.22915 2.62838 10078 ft 355 kts 327°
2026-05-08 20:09 49.24964 2.60734 10484 ft 361 kts 324°
2026-05-08 20:10 49.27029 2.58523 11228 ft 363 kts 323°
2026-05-08 20:10 49.29098 2.56265 11891 ft 367 kts 323°
2026-05-08 20:10 49.31185 2.53966 12541 ft 372 kts 323°
2026-05-08 20:10 49.33294 2.51636 13208 ft 376 kts 323°
2026-05-08 20:11 49.35427 2.49279 13882 ft 380 kts 323°
2026-05-08 20:11 49.37583 2.46904 14493 ft 384 kts 323°
2026-05-08 20:11 49.39762 2.44503 15072 ft 387 kts 323°
2026-05-08 20:11 49.41961 2.42080 15666 ft 391 kts 323°
2026-05-08 20:12 49.44185 2.39635 16261 ft 394 kts 323°
2026-05-08 20:12 49.46426 2.37170 16865 ft 398 kts 323°
2026-05-08 20:12 49.48688 2.34680 17487 ft 402 kts 323°
2026-05-08 20:12 49.50974 2.32158 18100 ft 406 kts 324°
2026-05-08 20:13 49.53289 2.29596 18605 ft 412 kts 324°
2026-05-08 20:13 49.55618 2.27011 19185 ft 414 kts 324°
2026-05-08 20:13 49.57955 2.24413 19813 ft 414 kts 324°
2026-05-08 20:13 49.60267 2.21838 20390 ft 415 kts 324°
2026-05-08 20:14 49.62614 2.19222 20921 ft 417 kts 324°
2026-05-08 20:14 49.64975 2.16593 21427 ft 419 kts 324°
2026-05-08 20:14 49.67344 2.13952 21923 ft 421 kts 324°
2026-05-08 20:14 49.69725 2.11288 22405 ft 423 kts 324°
2026-05-08 20:15 49.72107 2.08616 22871 ft 424 kts 324°
2026-05-08 20:15 49.74501 2.05928 23348 ft 425 kts 324°
2026-05-08 20:15 49.76900 2.03236 23782 ft 427 kts 324°
2026-05-08 20:15 49.79309 2.00531 24022 ft 427 kts 324°
2026-05-08 20:16 49.81724 1.97818 24079 ft 434 kts 324°
2026-05-08 20:16 49.84198 1.95038 24088 ft 443 kts 324°
2026-05-08 20:16 49.86703 1.92217 24092 ft 446 kts 324°
2026-05-08 20:16 49.89215 1.89381 24092 ft 447 kts 324°
2026-05-08 20:17 49.91719 1.86507 24089 ft 447 kts 323°
2026-05-08 20:17 49.94175 1.83556 24089 ft 447 kts 322°
2026-05-08 20:17 49.96584 1.80566 24089 ft 448 kts 321°
2026-05-08 20:17 49.99014 1.77506 24089 ft 450 kts 321°
2026-05-08 20:18 50.01450 1.74431 24093 ft 451 kts 321°
2026-05-08 20:18 50.03888 1.71368 24092 ft 451 kts 321°
2026-05-08 20:18 50.06374 1.68378 24091 ft 451 kts 326°
2026-05-08 20:18 50.09085 1.65945 24096 ft 451 kts 334°
2026-05-08 20:19 50.11938 1.63898 24085 ft 451 kts 335°
2026-05-08 20:19 50.14781 1.61849 24090 ft 451 kts 335°
2026-05-08 20:19 50.17591 1.59809 24086 ft 451 kts 334°
2026-05-08 20:19 50.20433 1.57742 24085 ft 451 kts 334°
2026-05-08 20:20 50.23275 1.55673 24097 ft 451 kts 334°
2026-05-08 20:20 50.26120 1.53598 24091 ft 451 kts 334°
2026-05-08 20:20 50.28963 1.51523 24092 ft 451 kts 334°
2026-05-08 20:20 50.31807 1.49446 24091 ft 451 kts 334°
2026-05-08 20:21 50.34652 1.47366 24096 ft 451 kts 334°
2026-05-08 20:21 50.37502 1.45280 24097 ft 451 kts 334°
2026-05-08 20:21 50.40348 1.43197 24090 ft 451 kts 334°
2026-05-08 20:21 50.43192 1.41111 24102 ft 451 kts 334°
2026-05-08 20:22 50.46034 1.39016 24094 ft 451 kts 333°
2026-05-08 20:22 50.48734 1.36517 24095 ft 451 kts 324°
2026-05-08 20:22 50.50371 1.34509 24096 ft 450 kts 318°
2026-05-08 20:22 50.52585 1.31026 24094 ft 450 kts 312°
2026-05-08 20:23 50.54701 1.27397 24093 ft 450 kts 312°
2026-05-08 20:23 50.56826 1.23770 24078 ft 451 kts 312°
2026-05-08 20:23 50.59680 1.19011 24097 ft 451 kts 314°
2026-05-08 20:23 50.61171 1.16628 24087 ft 451 kts 314°
2026-05-08 20:24 50.63400 1.13149 24090 ft 451 kts 315°
2026-05-08 20:24 50.65646 1.09684 24105 ft 451 kts 315°
2026-05-08 20:24 50.67886 1.06219 24096 ft 451 kts 315°
2026-05-08 20:24 50.70089 1.02781 24106 ft 451 kts 314°
2026-05-08 20:25 50.72310 0.99280 24106 ft 451 kts 314°
2026-05-08 20:25 50.74518 0.95770 24105 ft 451 kts 314°
2026-05-08 20:25 50.76725 0.92235 24095 ft 451 kts 314°
2026-05-08 20:25 50.78928 0.88697 24093 ft 452 kts 313°
2026-05-08 20:26 50.81137 0.85150 24047 ft 457 kts 314°
2026-05-08 20:26 50.83398 0.81526 23810 ft 467 kts 314°
2026-05-08 20:26 50.85686 0.77865 22801 ft 469 kts 314°
2026-05-08 20:26 50.87930 0.74277 21851 ft 461 kts 314°
2026-05-08 20:27 50.90173 0.70686 20911 ft 456 kts 313°
2026-05-08 20:27 50.92388 0.67126 19992 ft 451 kts 313°
2026-05-08 20:27 50.94583 0.63585 19101 ft 448 kts 313°
2026-05-08 20:27 50.96760 0.60067 18179 ft 445 kts 313°
2026-05-08 20:28 50.98921 0.56576 17002 ft 444 kts 313°
2026-05-08 20:28 51.01072 0.53098 16151 ft 437 kts 313°
2026-05-08 20:28 51.03174 0.49695 15777 ft 421 kts 313°
2026-05-08 20:28 51.05184 0.46441 15663 ft 403 kts 313°
2026-05-08 20:29 51.07107 0.43329 15539 ft 386 kts 313°
2026-05-08 20:29 51.08955 0.40420 15420 ft 370 kts 314°
2026-05-08 20:29 51.10773 0.37644 15295 ft 355 kts 315°
2026-05-08 20:29 51.12533 0.34997 15167 ft 341 kts 315°
2026-05-08 20:30 51.14229 0.32452 15046 ft 329 kts 315°
2026-05-08 20:30 51.15867 0.29980 14876 ft 320 kts 315°
2026-05-08 20:30 51.17462 0.27556 14580 ft 315 kts 315°
2026-05-08 20:30 51.19037 0.25145 14244 ft 313 kts 315°
2026-05-08 20:31 51.20603 0.22742 13896 ft 311 kts 315°
2026-05-08 20:31 51.22152 0.20360 13512 ft 309 kts 314°
2026-05-08 20:31 51.23695 0.17986 13127 ft 307 kts 314°
2026-05-08 20:31 51.25224 0.15629 12752 ft 305 kts 314°
2026-05-08 20:32 51.26747 0.13283 12374 ft 303 kts 314°
2026-05-08 20:32 51.28259 0.10951 12007 ft 302 kts 314°
2026-05-08 20:32 51.29764 0.08629 11735 ft 296 kts 314°
2026-05-08 20:32 51.31224 0.06379 11599 ft 287 kts 314°
2026-05-08 20:33 51.32494 0.04019 11472 ft 275 kts 299°
2026-05-08 20:33 51.33194 0.01256 11349 ft 264 kts 280°
2026-05-08 20:33 51.33407 -0.01580 11111 ft 259 kts 274°
2026-05-08 20:33 51.33576 -0.04447 10821 ft 258 kts 274°
2026-05-08 20:34 51.33747 -0.07298 10541 ft 257 kts 274°
2026-05-08 20:34 51.33917 -0.10137 10263 ft 256 kts 274°
2026-05-08 20:34 51.34256 -0.15770 9678 ft 253 kts 274°
2026-05-08 20:35 51.34423 -0.18575 9369 ft 253 kts 274°
2026-05-08 20:35 51.34590 -0.21374 9063 ft 252 kts 274°
2026-05-08 20:35 51.34755 -0.24158 8756 ft 252 kts 274°
2026-05-08 20:35 51.34917 -0.26930 8537 ft 247 kts 274°
2026-05-08 20:36 51.35079 -0.29651 8214 ft 247 kts 274°
2026-05-08 20:36 51.35245 -0.32493 7471 ft 265 kts 274°
2026-05-08 20:36 51.35417 -0.35495 6943 ft 274 kts 274°
2026-05-08 20:36 51.35590 -0.38541 6573 ft 275 kts 274°
2026-05-08 20:37 51.35761 -0.41583 6229 ft 274 kts 274°
2026-05-08 20:37 51.35930 -0.44623 5879 ft 274 kts 274°
2026-05-08 20:37 51.36099 -0.47650 5527 ft 273 kts 274°
2026-05-08 20:37 51.36267 -0.50674 5203 ft 272 kts 274°
2026-05-08 20:38 51.36433 -0.53686 4871 ft 272 kts 274°
2026-05-08 20:38 51.36595 -0.56661 4541 ft 271 kts 274°
2026-05-08 20:38 51.36760 -0.59651 4283 ft 267 kts 274°
2026-05-08 20:38 51.36934 -0.62566 4146 ft 259 kts 276°
2026-05-08 20:39 51.37511 -0.65217 3985 ft 251 kts 305°
2026-05-08 20:39 51.38694 -0.67242 3847 ft 249 kts 317°
2026-05-08 20:39 51.40022 -0.69039 3600 ft 250 kts 325°
2026-05-08 20:39 51.41484 -0.70510 3348 ft 246 kts 333°
2026-05-08 20:40 51.43080 -0.71355 3087 ft 240 kts 356°
2026-05-08 20:40 51.44708 -0.71141 2819 ft 234 kts 19°
2026-05-08 20:40 51.46113 -0.69973 2633 ft 223 kts 42°
2026-05-08 20:40 51.47086 -0.68195 2458 ft 202 kts 62°
2026-05-08 20:41 51.47580 -0.66196 2255 ft 187 kts 81°
2026-05-08 20:41 51.47672 -0.64165 2065 ft 180 kts 91°
2026-05-08 20:41 51.47683 -0.62180 1806 ft 175 kts 91°
2026-05-08 20:41 51.47694 -0.60328 1589 ft 159 kts 91°
2026-05-08 20:42 51.47708 -0.58689 1360 ft 141 kts 91°
2026-05-08 20:42 51.47718 -0.57160 1180 ft 135 kts 90°
2026-05-08 20:42 51.47732 -0.55673 1043 ft 132 kts 90°
2026-05-08 20:42 51.47746 -0.54198 862 ft 132 kts 91°
2026-05-08 20:43 51.47735 -0.52734 682 ft 131 kts 90°
2026-05-08 20:43 51.47743 -0.51271 505 ft 131 kts 91°
2026-05-08 20:43 51.47742 -0.49815 301 ft 130 kts 89°
2026-05-08 20:43 51.47751 -0.48371 121 ft 128 kts 90°
2026-05-08 20:44 51.47752 -0.47159 86 ft 75 kts 90°
2026-05-08 20:44 51.47755 -0.46635 91 ft 40 kts 89°
2026-05-08 20:44 51.47752 -0.46230 89 ft 24 kts 104°
2026-05-08 20:44 51.47645 -0.46083 87 ft 16 kts 156°
2026-05-08 20:45 51.47593 -0.46190 86 ft 16 kts 272°
2026-05-08 20:45 51.47593 -0.46316 86 ft 18 kts 269°
2026-05-08 20:45 51.47592 -0.46606 86 ft 20 kts 269°
2026-05-08 20:45 51.47590 -0.46835 86 ft 21 kts 262°
2026-05-08 20:46 51.47582 -0.47073 88 ft 22 kts 269°
2026-05-08 20:46 51.47582 -0.47332 90 ft 25 kts 270°
2026-05-08 20:46 51.47581 -0.47621 90 ft 27 kts 269°
2026-05-08 20:46 51.47580 -0.47896 90 ft 26 kts 270°
2026-05-08 20:47 51.47579 -0.48154 87 ft 22 kts 269°
2026-05-08 20:47 51.47578 -0.48395 88 ft 18 kts 268°
2026-05-08 20:47 51.47484 -0.48476 86 ft 19 kts 179°
2026-05-08 20:47 51.47347 -0.48474 86 ft 20 kts 179°
2026-05-08 20:48 51.47210 -0.48473 86 ft 14 kts 180°
2026-05-08 20:48 51.47155 -0.48473 86 ft 9 kts 180°
2026-05-08 20:48 51.47135 -0.48548 88 ft 7 kts 269°
2026-05-08 20:48 51.47134 -0.48601 90 ft 4 kts 269°
2026-05-08 20:49 51.47134 -0.48619 86 ft 0 kts 269°